Location: Clyde
(45.1830°S, 169.3170°E)
Time: 23:23:02
(UTC+13:00)

CZ-2C R/B - Pass Details

Date: 24 January 2019
Orbit: 785 x 870 km, 98.3° (Epoch: 21 February)

Event Time Altitude Azimuth Distance (km) Brightness Sun altitude
Exits shadow 21:48:37 - 37° (NE) 3,022 5.0 -4.8°
Reaches altitude 10° 21:50:06 10° 41° (NE) 2,459 4.5 -5.0°
Maximum altitude 21:55:14 44° 111° (ESE) 1,142 3.2 -5.8°
Drops below altitude 10° 22:00:19 10° 181° (S) 2,434 5.7 -6.5°
Sets 22:02:45 0° 187° (S) 3,361 6.5 -6.8°
